Location: Baix
(44.7118°N, 4.7648°E)
Time: 09:55:41
(UTC+00:00)

Vanguard 2 Rocket - Pass Details

Date: 28 November 2020
Orbit: 554 x 3325 km, 32.9° (Epoch: 21 January)

Event Time Altitude Azimuth Distance (km) Brightness Sun altitude
Rises 11:49:43 0° 270° (W) 7,137 11.5 23.7°
Reaches altitude 10° 11:55:13 10° 265° (W) 5,872 11.2 23.6°
Maximum altitude 12:10:22 42° 204° (SSW) 2,885 11.0 23.2°
Drops below altitude 10° 12:19:49 10° 137° (SE) 3,715 10.6 22.8°
Sets 12:22:29 0° 130° (SE) 4,381 10.7 22.7°
